Location: Augirein
(42.9320°N, 0.9181°E)
Time: 01:29:02
(UTC+00:00)

Cosmos 1125 Rocket - Pass Details

Date: 20 June 2021
Orbit: 757 x 780 km, 74.0° (Epoch: 25 July)

Event Time Altitude Azimuth Distance (km) Brightness Sun altitude
Rises 02:46:35 0° 337° (NNW) 3,244 7.1 -13.1°
Reaches altitude 10° 02:48:58 10° 334° (NNW) 2,317 6.3 -12.8°
Maximum altitude 02:54:10 65° 254° (WSW) 848 3.5 -12.2°
Drops below altitude 10° 02:59:23 10° 173° (S) 2,316 5.6 -11.6°
Sets 03:01:46 0° 170° (S) 3,242 6.4 -11.3°
Enters shadow 03:01:55 -1° 170° (S) 3,299 6.4 -11.3°
